Regional Weather Roundup
Issued by NWS

Home | Current Version | Previous Version | Graphics & Text | Print | Product List | Glossary On
Versions: 1 2 3 4 5 6 7 8 9 10 11 12 13 14 15 16 17 18 19 20 21 22 23 24 25 26 27 28 29 30 31 32 33 34 35 36 37 38 39 40 41 42 43 44 45 46 47 48 49 50
363
ASUS43 KFSD 052302
RWRSD

WEATHER ROUNDUP FOR SOUTH DAKOTA
NATIONAL WEATHER SERVICE SIOUX FALLS SD
500 PM CST FRI FEB 05 2016

NOTE: "FAIR" INDICATES FEW OR NO CLOUDS BELOW 12,000 FEET WITH NO
SIGNIFICANT WEATHER AND/OR OBSTRUCTIONS TO VISIBILITY.


SDZ001>005-009-010-012>017-060000-
NORTHWEST AND NORTH CENTRAL SOUTH DAKOTA

CITY           SKY/WX    TMP DP  RH WIND       PRES   REMARKS
BUFFALO          N/A     42  22  44 W14       30.08F
FAITH            N/A     40  23  50 W10       30.15S
MOBRIDGE       CLEAR     41  22  46 NW8       30.13F
$$

SDZ012>016-024>037-041>051-057-063-072>074-060000-
SOUTHWEST AND SOUTH CENTRAL SOUTH DAKOTA

CITY           SKY/WX    TMP DP  RH WIND       PRES   REMARKS
RAPID CTY ARPT CLEAR     40  22  48 N13       30.18S
PIERRE         CLEAR     38  26  62 W13       30.18S
CUSTER         SUNNY     33  11  39 W10G25    30.16S WCI  25
ELLSWORTH AFB  CLEAR     40  22  46 N10       30.17F
PHILIP         PTCLDY    40  26  57 NW8       30.20S
PINE RIDGE     SUNNY     38  25  59 W8        30.22S
WINNER         FAIR      36  30  79 NW8       30.21R
$$

SDZ004>011-016>023-039-040-060000-
NORTHEAST SOUTH DAKOTA

CITY           SKY/WX    TMP DP  RH WIND       PRES   REMARKS
ABERDEEN       CLEAR     39  21  48 NW12      30.17R
WATERTOWN      CLEAR     29  23  78 NW7       30.14R WCI  22
BROOKINGS      CLOUDY    28  23  81 NW7       30.15R WCI  21
SISSETON         N/A     33  26  75 NW6       30.14S WCI  28
$$

SDZ017-020-022-023-036>040-048>070-060000-
SOUTHEAST SOUTH DAKOTA

CITY           SKY/WX    TMP DP  RH WIND       PRES   REMARKS
SIOUX FALLS    CLOUDY    30  26  85 S3        30.16S
HURON          CLOUDY    34  30  85 NW3       30.18S
MITCHELL       CLOUDY    33  30  88 N10       30.20R WCI  25
YANKTON        CLOUDY    34  28  80 NW14      30.18R WCI  24
$$

ABBREVIATIONS USED IN REMARKS
   TC - TEMPERATURE IN CELSIUS
  WCI - WIND CHILL INDEX
   HX - HEAT INDEX
  VSB - VISIBILITY





USA.gov is the U.S. government's official web portal to all federal, state and local government web resources and services.